SCP
0 0 0 0 0 0 0 0 0 0 0 0 0 0 0 0 0 0 0 0 0 0 0 0 0 0 0 0 0 0 0 0 0 0 0 0 0 0 0 0 0 0 0
0 0 0 0 0 0 0 0 0 0 0 0 0 0 0 0 0 0 0 0 0 0 0 0 0 0 0 0 0 0 0 0 0 0 0 0 0 0 0 0 0 0 0
0 0 0 0 0 0 0 0 0 0 0 0 0 0 0 0 0 0 0 0 0 0 0 0 0 0 0 0 0 0 0 0 0 0 0 0 0 0 0 0 0 0 0
0 0 0 0 0 0 0 0 0 0 0 0 0 0 0 0 0 0 0 0 0 0 0 0 0 0 0 0 0 0 0 0 0 0 0 0 0 0 0 0 0 0 0
0 0 0 0 0 0 0 0 0 0 0 0 0 0 0 0 0 0 0 0 0 0 0 0 0 0 0 0 0 0 0 0 0 0 0 0 0 0 0 0 0 0 0
0 0 0 0 0 0 0 0 0 0 0 0 0 0 0 0 0 0 0 0 0 0 0 0 0 0 0 0 0 0 0 0 0 0 0 0 0 0 0 0 0 0 0
0 0 0 0 0 0 0 0 0 0 0 0 0 0 0 0 0 0 0 0 0 0 0 0 0 0 0 0 0 0 0 0 0 0 0 0 0 0 0 0 0 0 0
0 0 0 0 0 0 0 0 0 0 0 0 0 0 0 0 0 0 0 0 0 0 0 0 0 0 0 0 0 0 0 0 0 0 0 0 0 0 0 0 0 0 0
0 0 0 0 0 0 0 0 0 0 0 0 0 0 0 0 0 0 0 0 0 0 0 0 0 0 0 0 0 0 0 0 0 0 0 0 0 0 0 0 0 0 0
0 0 0 0 0 0 0 0 0 0 0 0 0 0 0 0 0 0 0 0 0 0 0 0 0 0 0 0 0 0 0 0 0 0 0 0 0 0 0 0 0 0 0
0 0 0 0 0 0 0 0 0 0 0 0 0 0 0 0 0 0 0 0 0 0 0 0 0 0 0 0 0 0 0 0 0 0 0 0 0 0 0 0 0 0 0
0 0 0 0 0 0 0 0 0 0 0 0 0 0 0 0 0 0 0 0 0 0 0 0 0 0 0 0 0 0 0 0 0 0 0 0 0 0 0 0 0 0 0
0 0 0 0 0 0 0 0 0 0 0 0 0 0 0 0 0 0 0 0 0 0 0 0 0 0 0 0 0 0 0 0 0 0 0 0 0 0 0 0 0 0 0
0 0 0 0 0 0 0 0 0 0 0 0 0 0 0 0 0 0 0 0 0 0 0 0 0 0 0 0 0 0 0 0 0 0 0 0 0 0 0 0 0 0 0
0 0 0 0 0 0 0 0 0 0 0 0 0 0 0 0 0 0 0 0 0 0 0 0 0 0 0 0 0 0 0 0 0 0 0 0 0 0 0 0 0 0 0
0 0 0 0 0 0 0 0 0 0 0 0 0 0 0 0 0 0 0 0 0 0 0 0 0 0 0 0 0 0 0 0 0 0 0 0 0 0 0 0 0 0 0
0 0 0 0 0 0 0 0 0 0 0 0 0 0 0 0 0 0 0 0 0 0 0 0 0 0 0 0 0 -0 -0 -0 -0 -0 0 0 0 0 0 0 0 0 0
0 0 0 0 0 0 0 0 0 0 0 0 0 0 0 0 0 0 0 0 0 0 0 0 0 0 0 0 0 0 0 -0 0 -0 0 0 0 0 0 0 0 0 0
0 0 0 0 0 0 0 0 0 0 0 0 0 0 0 0 0 0 0 0 0 0 0 0 0 0 0 0 0 0 0 0 0 0 0 0 0 0 0 0 0 0 0
0 0 0 0 0 0 0 0 0 0 0 0 0 0 0 0 0 0 0 0 0 0 0 0 0 0 0 0 0 0 0 -0 -0 -0 -0 -0 -0 -0 -0 0 0 0 0
0 0 0 0 0 0 0 0 0 0 0 0 0 0 0 0 0 0 0 0 0 0 0 0 0 0 0 0 0 0 -0 -0 -0 -0 -0 0 0 0 0 -0 -0 -0 0
0 0 0 0 0 0 0 0 0 0 0 0 0 0 0 0 0 0 0 0 0 0 0 0 0 0 0 0 0 0 0 -0 -0 -0 0 0 0 0 0 -0 -0 0 0
0 0 0 0 0 0 0 0 0 0 0 0 0 0 0 0 0 0 0 0 0 0 0 0 0 0 0 0 0 0 0 0 -0 0 0 0 0 0 0 0 0 -0 -0
0 0 0 0 0 0 0 0 0 0 0 0 0 0 0 0 0 0 0 0 0 0 0 0 0 0 0 0 0 0 0 0 0 0 -0 0 0 0 0 0 -0 -0 0
0 0 0 0 0 0 0 0 0 0 0 0 0 0 0 0 0 0 0 0 0 0 0 0 0 0 0 0 0 0 0 0 0 0 0 0 0 0 0 -0 -0 -0 0
0 0 0 0 0 0 0 0 0 0 0 0 0 0 0 0 0 0 0 0 0 0 0 0 0 0 0 0 0 0 0 0 0 0 -0 0 0 0 0 -0 0 0 0
Wind_Speed_500mb
54 49 45 42 38 33 28 23 19 15 11 10 13 16 18 18 19 19 20 18 17 17 19 20 20 19 19 18 11 1 8 9 3 17 20 19 19 22 23 32 38 37 37
60 57 52 49 44 39 35 29 25 18 12 11 15 18 19 19 20 21 21 20 18 16 16 18 19 19 13 3 8 7 11 12 2 18 21 19 22 22 26 27 30 37 39
68 65 60 57 51 45 40 35 29 21 15 13 15 18 20 21 21 21 19 18 15 15 15 15 14 13 14 14 6 10 4 15 3 15 10 13 18 19 21 27 29 26 35
74 71 68 62 58 53 47 42 36 28 22 16 15 16 19 22 22 17 14 13 12 13 12 13 13 13 13 14 12 1 13 12 14 8 3 13 17 16 16 20 24 29 31
80 78 73 67 64 60 55 50 43 35 27 20 16 14 18 21 20 18 16 15 13 12 11 12 14 15 13 9 10 13 13 14 15 14 15 18 19 20 21 22 27 31 32
86 82 78 75 73 69 63 58 49 40 32 27 20 15 15 17 18 16 15 13 14 14 14 14 14 12 12 15 16 17 17 18 20 22 24 25 27 29 31 31 32 35 36
90 89 86 84 80 75 68 60 53 49 44 35 24 15 12 14 13 13 13 14 12 9 10 12 14 14 13 12 13 14 15 17 19 20 20 21 23 26 30 34 36 37 37
95 94 92 89 84 80 74 69 62 58 52 42 29 20 12 15 24 23 22 19 15 8 5 9 10 11 11 11 14 14 10 9 10 13 15 17 20 26 31 35 38 40 40
99 97 93 91 88 83 80 73 69 63 57 49 40 27 12 14 18 24 28 30 27 15 12 12 12 11 12 13 11 10 4 6 11 15 18 20 23 26 30 34 38 40 42
101 101 98 95 92 87 83 77 72 66 64 58 47 41 34 27 18 15 25 27 30 21 14 13 15 15 15 14 15 2 8 12 16 20 24 27 29 31 35 39 42 43 44
104 103 102 100 96 92 85 81 77 75 70 63 58 50 42 35 30 29 20 25 27 22 17 15 12 11 7 14 4 10 14 18 23 26 28 31 33 34 37 40 43 46 48
101 102 102 101 97 92 91 86 83 79 73 67 62 56 51 44 36 31 32 27 27 25 25 21 18 17 15 11 5 10 16 22 27 30 32 34 35 37 39 42 45 46 47
94 99 103 102 99 97 93 90 87 83 79 77 71 65 56 49 41 32 30 31 29 25 25 24 20 16 14 6 10 16 21 25 28 32 36 39 42 43 44 46 48 51 53
76 85 94 99 99 97 94 90 88 85 83 81 76 69 62 56 48 40 34 32 30 30 28 26 28 21 13 10 15 19 23 27 31 35 38 41 43 44 45 47 49 50 52
71 76 83 93 97 97 97 96 94 93 88 85 81 75 70 64 56 48 41 37 36 31 31 33 29 25 15 15 17 20 25 29 34 38 42 44 46 46 45 46 46 48 51
70 72 75 84 92 97 99 100 100 98 94 92 88 83 79 73 65 57 48 42 40 38 33 30 31 24 19 19 20 24 27 32 37 41 42 45 46 43 39 39 41 44 45
70 73 74 80 89 94 101 105 106 104 100 98 95 93 88 81 76 67 58 51 46 42 41 39 34 28 22 20 25 30 33 37 38 38 42 44 44 45 46 50 52 52 53
68 76 79 81 87 93 96 106 114 112 109 107 104 101 96 89 83 75 66 56 48 44 43 41 41 36 29 27 30 35 35 40 39 41 44 42 41 43 42 44 47 51 55
63 72 82 87 91 94 98 102 111 115 114 111 108 106 103 99 93 84 74 63 56 49 46 46 45 42 37 34 35 38 40 42 37 37 40 38 35 36 39 45 49 54 57
59 66 78 83 91 96 101 104 109 115 116 116 115 111 111 107 99 91 80 68 61 57 52 53 49 47 42 39 38 37 37 42 35 42 45 41 49 51 50 49 47 50 56
63 62 72 81 92 97 101 106 110 117 121 121 123 120 117 112 102 94 86 78 73 67 64 59 55 51 47 43 36 33 33 35 31 34 37 48 53 53 54 56 58 57 59
67 63 70 76 89 102 103 104 108 114 119 124 131 128 124 118 110 100 92 84 76 73 69 64 61 56 48 46 37 29 28 30 28 31 51 50 51 54 56 62 65 66 63
72 68 65 72 81 91 99 104 108 113 117 121 129 132 132 122 114 107 99 90 83 76 72 63 62 57 49 43 35 29 29 32 35 38 54 63 54 58 60 63 65 66 68
68 70 65 67 72 82 88 96 100 109 118 117 121 129 131 127 121 116 104 96 91 83 78 72 66 60 48 39 34 31 30 33 38 39 46 64 59 68 72 68 66 63 74
72 63 67 64 67 75 79 77 87 103 112 119 116 121 127 130 122 119 108 100 93 84 77 73 68 61 47 40 37 31 26 31 37 40 40 51 65 79 82 76 72 76 77
80 67 66 68 65 68 68 74 79 87 112 121 112 117 122 126 120 118 111 103 94 87 82 78 67 57 51 38 34 31 28 27 30 28 30 52 58 64 71 82 84 86 90
Wind_Direction_500mb
227 226 223 223 222 223 224 225 230 240 261 297 321 328 327 326 324 324 319 312 300 286 276 270 259 251 252 252 253 207 63 79 128 257 267 269 269 266 261 248 244 247 248
230 228 226 226 226 225 224 224 225 233 256 299 320 326 326 323 322 322 318 312 307 292 274 263 262 255 252 152 181 173 196 223 329 259 268 279 277 272 268 265 261 252 248
230 228 226 226 226 226 224 225 228 234 249 281 304 316 319 316 314 312 306 299 290 284 275 268 258 230 194 194 142 208 26 80 218 261 282 278 280 289 286 287 286 275 267
230 229 227 226 226 226 225 224 225 228 234 254 283 306 313 311 308 299 287 274 265 259 254 250 245 239 238 239 246 214 137 201 252 310 314 276 299 308 293 289 294 289 283
231 229 227 226 227 227 225 224 225 224 231 246 266 293 308 309 301 289 267 251 243 239 234 242 247 247 249 240 232 239 250 264 280 292 303 310 313 308 306 297 289 290 291
230 228 227 227 227 226 225 224 223 223 227 232 246 269 294 295 282 266 253 245 243 248 253 254 257 263 269 270 270 267 272 280 292 295 296 296 298 299 296 297 297 297 300
230 228 227 227 227 227 228 226 223 223 223 224 229 241 266 272 244 219 202 191 194 206 231 245 251 254 255 260 266 265 266 274 282 288 290 288 291 293 291 289 290 288 289
228 229 228 228 228 227 224 224 224 223 222 222 222 224 236 243 245 232 222 217 208 206 254 252 249 241 229 217 209 231 244 263 287 304 309 308 304 299 297 295 292 290 288
227 228 229 230 231 229 229 227 225 225 227 227 226 221 204 219 205 223 230 231 225 236 277 265 246 221 202 204 198 180 188 284 294 297 299 300 302 301 300 297 295 293 289
227 227 228 229 230 231 229 229 229 227 228 229 227 231 239 240 211 222 227 223 222 227 251 241 221 210 199 183 181 186 317 326 331 334 331 327 322 318 311 307 305 302 297
228 228 228 228 228 228 229 229 228 226 227 229 232 234 234 234 236 235 232 226 225 224 238 228 216 195 186 168 172 331 340 345 349 350 344 337 331 326 322 319 315 312 308
229 230 230 230 230 229 228 227 226 228 229 230 233 237 242 239 240 235 234 230 223 225 223 214 204 192 173 183 278 342 347 350 351 350 346 341 336 332 328 325 323 320 317
230 232 231 230 230 230 229 227 227 227 227 228 230 232 235 237 243 244 241 238 229 219 225 219 213 209 197 257 322 341 348 346 345 345 344 343 340 336 333 331 329 327 325
242 239 235 232 232 232 230 229 229 229 229 229 229 229 233 236 238 245 247 240 233 228 224 224 222 220 225 293 316 332 341 339 340 340 339 337 336 333 331 329 326 324 324
251 246 239 237 235 233 230 229 229 230 229 230 230 230 232 233 234 238 243 242 238 234 226 223 224 220 248 289 304 321 329 332 331 332 333 332 331 331 332 332 331 330 327
255 252 247 242 239 236 232 229 230 229 228 229 229 230 232 232 232 234 237 240 238 237 233 228 227 230 259 281 301 315 321 326 330 329 327 326 324 323 328 331 330 326 324
258 255 251 248 243 237 235 232 231 230 228 228 229 230 231 231 231 232 232 232 232 233 237 239 241 252 266 281 298 308 312 317 322 324 321 323 323 327 336 332 330 330 330
267 261 254 251 248 243 238 236 234 231 228 227 228 229 230 229 229 231 232 232 231 232 235 235 243 245 251 262 279 285 296 307 317 320 318 322 322 322 324 318 322 330 330
278 266 259 253 249 246 242 238 237 235 232 230 230 231 231 230 229 230 231 232 233 232 236 238 239 244 247 257 270 279 288 295 306 306 307 307 309 319 326 326 328 327 326
283 275 265 260 255 250 246 242 238 236 234 233 233 231 232 231 231 231 231 233 235 235 234 234 236 242 245 253 265 275 288 299 317 318 315 323 335 338 339 332 333 330 328
291 282 276 265 256 250 246 244 240 238 235 233 233 232 232 232 232 233 232 231 232 233 231 231 230 235 246 253 262 274 288 299 316 310 312 330 327 335 334 332 339 338 332
310 289 279 273 264 256 249 245 242 241 239 237 235 232 231 231 229 228 229 228 233 236 232 230 230 233 239 249 258 272 287 298 314 309 310 321 326 335 332 333 338 339 334
325 312 287 278 270 266 259 252 246 242 240 239 239 236 233 230 228 227 225 228 231 231 231 235 234 236 236 245 252 264 281 292 306 318 316 318 329 328 329 333 335 338 337
311 316 311 288 277 271 266 260 253 248 244 241 241 240 237 234 228 226 224 226 228 228 229 230 230 233 235 241 247 262 278 295 308 317 320 316 330 325 326 330 332 337 334
301 303 309 306 285 274 268 263 257 250 243 241 239 240 238 237 229 226 224 225 225 226 227 228 226 228 234 236 245 260 279 290 304 319 325 322 329 325 323 326 329 335 330
301 298 299 303 299 282 270 264 251 245 245 239 235 239 239 237 232 227 226 224 223 224 224 222 223 225 226 227 239 253 264 281 299 323 325 321 325 329 324 324 321 324 326
Wind_Speed_850mb
54 49 45 42 38 33 28 23 19 15 11 10 13 16 18 18 19 19 20 18 17 17 19 20 20 19 19 18 11 1 8 9 3 17 20 19 19 22 23 32 38 37 37
60 57 52 49 44 39 35 29 25 18 12 11 15 18 19 19 20 21 21 20 18 16 16 18 19 19 13 3 8 7 11 12 2 18 21 19 22 22 26 27 30 37 39
68 65 60 57 51 45 40 35 29 21 15 13 15 18 20 21 21 21 19 18 15 15 15 15 14 13 14 14 6 10 4 15 3 15 10 13 18 19 21 27 29 26 35
74 71 68 62 58 53 47 42 36 28 22 16 15 16 19 22 22 17 14 13 12 13 12 13 13 13 13 14 12 1 13 12 14 8 3 13 17 16 16 20 24 29 31
80 78 73 67 64 60 55 50 43 35 27 20 16 14 18 21 20 18 16 15 13 12 11 12 14 15 13 9 10 13 13 14 15 14 15 18 19 20 21 22 27 31 32
86 82 78 75 73 69 63 58 49 40 32 27 20 15 15 17 18 16 15 13 14 14 14 14 14 12 12 15 16 17 17 18 20 22 24 25 27 29 31 31 32 35 36
90 89 86 84 80 75 68 60 53 49 44 35 24 15 12 14 13 13 13 14 12 9 10 12 14 14 13 12 13 14 15 17 19 20 20 21 23 26 30 34 36 37 37
95 94 92 89 84 80 74 69 62 58 52 42 29 20 12 15 24 23 22 19 15 8 5 9 10 11 11 11 14 14 10 9 10 13 15 17 20 26 31 35 38 40 40
99 97 93 91 88 83 80 73 69 63 57 49 40 27 12 14 18 24 28 30 27 15 12 12 12 11 12 13 11 10 4 6 11 15 18 20 23 26 30 34 38 40 42
101 101 98 95 92 87 83 77 72 66 64 58 47 41 34 27 18 15 25 27 30 21 14 13 15 15 15 14 15 2 8 12 16 20 24 27 29 31 35 39 42 43 44
104 103 102 100 96 92 85 81 77 75 70 63 58 50 42 35 30 29 20 25 27 22 17 15 12 11 7 14 4 10 14 18 23 26 28 31 33 34 37 40 43 46 48
101 102 102 101 97 92 91 86 83 79 73 67 62 56 51 44 36 31 32 27 27 25 25 21 18 17 15 11 5 10 16 22 27 30 32 34 35 37 39 42 45 46 47
94 99 103 102 99 97 93 90 87 83 79 77 71 65 56 49 41 32 30 31 29 25 25 24 20 16 14 6 10 16 21 25 28 32 36 39 42 43 44 46 48 51 53
76 85 94 99 99 97 94 90 88 85 83 81 76 69 62 56 48 40 34 32 30 30 28 26 28 21 13 10 15 19 23 27 31 35 38 41 43 44 45 47 49 50 52
71 76 83 93 97 97 97 96 94 93 88 85 81 75 70 64 56 48 41 37 36 31 31 33 29 25 15 15 17 20 25 29 34 38 42 44 46 46 45 46 46 48 51
70 72 75 84 92 97 99 100 100 98 94 92 88 83 79 73 65 57 48 42 40 38 33 30 31 24 19 19 20 24 27 32 37 41 42 45 46 43 39 39 41 44 45
70 73 74 80 89 94 101 105 106 104 100 98 95 93 88 81 76 67 58 51 46 42 41 39 34 28 22 20 25 30 33 37 38 38 42 44 44 45 46 50 52 52 53
68 76 79 81 87 93 96 106 114 112 109 107 104 101 96 89 83 75 66 56 48 44 43 41 41 36 29 27 30 35 35 40 39 41 44 42 41 43 42 44 47 51 55
63 72 82 87 91 94 98 102 111 115 114 111 108 106 103 99 93 84 74 63 56 49 46 46 45 42 37 34 35 38 40 42 37 37 40 38 35 36 39 45 49 54 57
59 66 78 83 91 96 101 104 109 115 116 116 115 111 111 107 99 91 80 68 61 57 52 53 49 47 42 39 38 37 37 42 35 42 45 41 49 51 50 49 47 50 56
63 62 72 81 92 97 101 106 110 117 121 121 123 120 117 112 102 94 86 78 73 67 64 59 55 51 47 43 36 33 33 35 31 34 37 48 53 53 54 56 58 57 59
67 63 70 76 89 102 103 104 108 114 119 124 131 128 124 118 110 100 92 84 76 73 69 64 61 56 48 46 37 29 28 30 28 31 51 50 51 54 56 62 65 66 63
72 68 65 72 81 91 99 104 108 113 117 121 129 132 132 122 114 107 99 90 83 76 72 63 62 57 49 43 35 29 29 32 35 38 54 63 54 58 60 63 65 66 68
68 70 65 67 72 82 88 96 100 109 118 117 121 129 131 127 121 116 104 96 91 83 78 72 66 60 48 39 34 31 30 33 38 39 46 64 59 68 72 68 66 63 74
72 63 67 64 67 75 79 77 87 103 112 119 116 121 127 130 122 119 108 100 93 84 77 73 68 61 47 40 37 31 26 31 37 40 40 51 65 79 82 76 72 76 77
80 67 66 68 65 68 68 74 79 87 112 121 112 117 122 126 120 118 111 103 94 87 82 78 67 57 51 38 34 31 28 27 30 28 30 52 58 64 71 82 84 86 90
Wind_Direction_850mb
227 226 223 223 222 223 224 225 230 240 261 297 321 328 327 326 324 324 319 312 300 286 276 270 259 251 252 252 253 207 63 79 128 257 267 269 269 266 261 248 244 247 248
230 228 226 226 226 225 224 224 225 233 256 299 320 326 326 323 322 322 318 312 307 292 274 263 262 255 252 152 181 173 196 223 329 259 268 279 277 272 268 265 261 252 248
230 228 226 226 226 226 224 225 228 234 249 281 304 316 319 316 314 312 306 299 290 284 275 268 258 230 194 194 142 208 26 80 218 261 282 278 280 289 286 287 286 275 267
230 229 227 226 226 226 225 224 225 228 234 254 283 306 313 311 308 299 287 274 265 259 254 250 245 239 238 239 246 214 137 201 252 310 314 276 299 308 293 289 294 289 283
231 229 227 226 227 227 225 224 225 224 231 246 266 293 308 309 301 289 267 251 243 239 234 242 247 247 249 240 232 239 250 264 280 292 303 310 313 308 306 297 289 290 291
230 228 227 227 227 226 225 224 223 223 227 232 246 269 294 295 282 266 253 245 243 248 253 254 257 263 269 270 270 267 272 280 292 295 296 296 298 299 296 297 297 297 300
230 228 227 227 227 227 228 226 223 223 223 224 229 241 266 272 244 219 202 191 194 206 231 245 251 254 255 260 266 265 266 274 282 288 290 288 291 293 291 289 290 288 289
228 229 228 228 228 227 224 224 224 223 222 222 222 224 236 243 245 232 222 217 208 206 254 252 249 241 229 217 209 231 244 263 287 304 309 308 304 299 297 295 292 290 288
227 228 229 230 231 229 229 227 225 225 227 227 226 221 204 219 205 223 230 231 225 236 277 265 246 221 202 204 198 180 188 284 294 297 299 300 302 301 300 297 295 293 289
227 227 228 229 230 231 229 229 229 227 228 229 227 231 239 240 211 222 227 223 222 227 251 241 221 210 199 183 181 186 317 326 331 334 331 327 322 318 311 307 305 302 297
228 228 228 228 228 228 229 229 228 226 227 229 232 234 234 234 236 235 232 226 225 224 238 228 216 195 186 168 172 331 340 345 349 350 344 337 331 326 322 319 315 312 308
229 230 230 230 230 229 228 227 226 228 229 230 233 237 242 239 240 235 234 230 223 225 223 214 204 192 173 183 278 342 347 350 351 350 346 341 336 332 328 325 323 320 317
230 232 231 230 230 230 229 227 227 227 227 228 230 232 235 237 243 244 241 238 229 219 225 219 213 209 197 257 322 341 348 346 345 345 344 343 340 336 333 331 329 327 325
242 239 235 232 232 232 230 229 229 229 229 229 229 229 233 236 238 245 247 240 233 228 224 224 222 220 225 293 316 332 341 339 340 340 339 337 336 333 331 329 326 324 324
251 246 239 237 235 233 230 229 229 230 229 230 230 230 232 233 234 238 243 242 238 234 226 223 224 220 248 289 304 321 329 332 331 332 333 332 331 331 332 332 331 330 327
255 252 247 242 239 236 232 229 230 229 228 229 229 230 232 232 232 234 237 240 238 237 233 228 227 230 259 281 301 315 321 326 330 329 327 326 324 323 328 331 330 326 324
258 255 251 248 243 237 235 232 231 230 228 228 229 230 231 231 231 232 232 232 232 233 237 239 241 252 266 281 298 308 312 317 322 324 321 323 323 327 336 332 330 330 330
267 261 254 251 248 243 238 236 234 231 228 227 228 229 230 229 229 231 232 232 231 232 235 235 243 245 251 262 279 285 296 307 317 320 318 322 322 322 324 318 322 330 330
278 266 259 253 249 246 242 238 237 235 232 230 230 231 231 230 229 230 231 232 233 232 236 238 239 244 247 257 270 279 288 295 306 306 307 307 309 319 326 326 328 327 326
283 275 265 260 255 250 246 242 238 236 234 233 233 231 232 231 231 231 231 233 235 235 234 234 236 242 245 253 265 275 288 299 317 318 315 323 335 338 339 332 333 330 328
291 282 276 265 256 250 246 244 240 238 235 233 233 232 232 232 232 233 232 231 232 233 231 231 230 235 246 253 262 274 288 299 316 310 312 330 327 335 334 332 339 338 332
310 289 279 273 264 256 249 245 242 241 239 237 235 232 231 231 229 228 229 228 233 236 232 230 230 233 239 249 258 272 287 298 314 309 310 321 326 335 332 333 338 339 334
325 312 287 278 270 266 259 252 246 242 240 239 239 236 233 230 228 227 225 228 231 231 231 235 234 236 236 245 252 264 281 292 306 318 316 318 329 328 329 333 335 338 337
311 316 311 288 277 271 266 260 253 248 244 241 241 240 237 234 228 226 224 226 228 228 229 230 230 233 235 241 247 262 278 295 308 317 320 316 330 325 326 330 332 337 334
301 303 309 306 285 274 268 263 257 250 243 241 239 240 238 237 229 226 224 225 225 226 227 228 226 228 234 236 245 260 279 290 304 319 325 322 329 325 323 326 329 335 330
301 298 299 303 299 282 270 264 251 245 245 239 235 239 239 237 232 227 226 224 223 224 224 222 223 225 226 227 239 253 264 281 299 323 325 321 325 329 324 324 321 324 326